Location: Passau
(48.5721°N, 13.4363°E)
Time: 01:46:52
(UTC+01:00)

ISS - Pass Details

Date: 29 September 2020
Orbit: 417 x 420 km, 51.6° (Epoch: 27 October)

Event Time Altitude Azimuth Distance (km) Brightness Sun altitude
Rises 19:27:50 0° 281° (W) 2,368 2.4 -7.3°
Reaches altitude 10° 19:29:59 10° 287° (WNW) 1,504 0.6 -7.7°
Maximum altitude 19:33:16 48° 3° (N) 558 -3.1 -8.2°
Enters shadow 19:36:21 11° 79° (E) 1,426 -1.7 -8.7°
